カタログに戻る

STARLINK-4536

運用中通信VLEO
NORAD 53783·PAYLOAD·🇺🇸 United States

打ち上げ Sep 11, 2022 から Cape Canaveral Space Force Station

Loading…

次のパス (今後24時間)

TLE

最新Source: CelesTrak SupGP

元期: Sep 15, 2026, 01:33 UTC

1 53783C 22111L   26258.06506944  .00683630  00000+0  20663-1 0  2581
2 53783  53.1606 141.4233 0001349  80.0907 259.7067 15.33332172    15

AllMySatでSTARLINK-4536をリアルタイム追跡

Download on the App Store